Stations météo

réclame
Mon MeteoGroup
Itzehoe, Allemagne (10142): Température de l'air & dewpoint: 02.07.2020 15:00:00 - 08.07.2020 15:00:00 (CEST)Itzehoe, Allemagne (10142): Température de l'air 5cm & Température de l'air -5cm: 02.07.2020 15:00:00 - 08.07.2020 15:00:00 (CEST)Itzehoe, Allemagne (10142): Température de l'air -20cm & Température de l'air -100cm: 02.07.2020 15:00:00 - 08.07.2020 15:00:00 (CEST)Itzehoe, Allemagne (10142): Vitesse du vent & gusts: 02.07.2020 15:00:00 - 08.07.2020 15:00:00 (CEST)Itzehoe, Allemagne (10142): Direction du vent: 02.07.2020 15:00:00 - 08.07.2020 15:00:00 (CEST)Itzehoe, Allemagne (10142): reduced air pressure: 02.07.2020 15:00:00 - 08.07.2020 15:00:00 (CEST)Itzehoe, Allemagne (10142): visibility: 02.07.2020 15:00:00 - 08.07.2020 15:00:00 (CEST)Itzehoe, Allemagne (10142): Quantités de précipitations: 02.07.2020 15:00:00 - 08.07.2020 15:00:00 (CEST)
Date & Time tt [°C] td [°C] tt 5cm [°C] tt -5cm [°C] tt -20cm [°C] tt -100cm [°C] ff [km/h] ff [knt] fx [km/h] fx [knt] dd ppp [hPa] vv [km] rr [mm]
08.07.2020 15:00:00 17,2 9,1 18,7 20,3 17,3 15,5 15 8 29 16 NW 1014,8 75 0,0
08.07.2020 14:00:00 16,7 9,4 17,9 20,6 16,6 15,5 16 9 27 14 NNW 1014,4 72 0,0
08.07.2020 13:00:00 17,5 8,7 21,7 22,8 15,7 15,5 12 6 28 15 WNW 1014,2 65 0,0
08.07.2020 12:00:00 - - - 19,7 15,0 15,5 7 4 19 10 WNW - 75 0,0
08.07.2020 11:00:00 15,3 12,1 19,1 18,0 14,4 15,5 6 3 15 8 WSW 1014,1 69 0,0
08.07.2020 10:00:00 14,3 12,2 14,9 15,5 14,0 15,5 6 4 14 8 NW 1013,9 64 4,6
08.07.2020 09:00:00 12,7 11,7 12,1 13,4 13,9 15,5 6 3 16 9 NNW 1013,8 3,4 0,9
08.07.2020 08:00:00 12,6 11,9 12,1 12,9 13,9 15,5 5 3 13 7 WSW 1013,8 37 0,0
08.07.2020 07:00:00 12,1 11,5 11,5 12,3 14,0 15,5 6 3 11 6 SW 1013,6 35 0,0
08.07.2020 06:00:00 11,5 11,0 10,4 11,7 14,2 15,5 5 3 12 6 SW 1013,7 37 0,0
08.07.2020 05:00:00 11,6 11,1 10,1 11,8 14,4 15,5 8 4 15 8 WSW 1013,8 35 0,0
08.07.2020 04:00:00 11,1 10,5 9,8 11,9 14,7 15,6 5 3 12 6 SW 1014,1 38 0,0
08.07.2020 03:00:00 11,9 11,0 10,7 12,6 15,0 15,6 6 3 11 6 WSW 1014,5 21 0,8
08.07.2020 02:00:00 11,3 10,4 10,3 12,7 15,2 15,6 5 3 8 5 SW 1014,7 8 1,0
08.07.2020 01:00:00 11,8 11,1 10,8 13,0 15,5 15,6 2 1 13 7 W 1014,8 14 2,1
08.07.2020 00:00:00 12,1 10,8 10,8 13,3 15,9 15,6 9 5 19 11 WSW 1015,1 41 0,1
07.07.2020 23:00:00 12,4 10,7 11,0 13,6 16,2 15,6 7 4 16 9 NW 1015,1 41 1,0
07.07.2020 22:00:00 13,3 10,0 11,8 14,2 16,6 15,6 6 3 15 8 WSW 1015,0 60 0,0
07.07.2020 21:00:00 13,8 10,6 12,7 15,0 16,9 15,7 7 4 16 8 WSW 1015,0 52 0,0
07.07.2020 20:00:00 14,3 9,9 13,8 15,9 17,1 15,7 8 4 20 11 WSW 1015,2 55 0,0
07.07.2020 19:00:00 14,6 10,5 14,4 16,9 17,2 15,7 7 4 29 16 W 1015,3 52 0,0
07.07.2020 18:00:00 15,1 11,6 15,0 18,2 17,2 15,7 11 6 20 11 W 1015,2 54 0,5
07.07.2020 17:00:00 13,2 12,1 12,7 16,5 17,4 15,7 10 5 22 12 WSW 1016,0 4,8 1,5
07.07.2020 16:00:00 13,5 12,9 13,4 17,0 17,7 15,7 10 5 29 16 WSW 1016,1 7 3,4
07.07.2020 15:00:00 14,7 11,1 12,9 19,0 17,5 15,7 11 6 38 20 WSW 1015,9 8 0,4
07.07.2020 14:00:00 17,6 8,3 20,8 23,1 16,8 15,8 20 11 34 18 WSW 1015,9 54 0,0
07.07.2020 13:00:00 18,1 9,4 21,4 21,9 16,2 15,8 16 9 37 20 WSW 1016,5 52 0,0
07.07.2020 12:00:00 17,1 8,7 21,4 20,9 15,5 15,8 14 8 28 15 SW 1017,1 54 0,0
07.07.2020 11:00:00 16,1 8,3 18,0 18,3 14,8 15,8 9 5 29 15 WSW 1017,6 74 0,0
07.07.2020 10:00:00 16,4 9,0 19,2 18,1 14,2 15,8 11 6 21 12 WSW 1017,5 59 0,0
07.07.2020 09:00:00 15,3 8,8 16,9 14,8 13,8 15,8 7 4 27 15 W 1017,9 42 0,0
07.07.2020 08:00:00 13,9 8,9 15,5 12,6 13,7 15,8 8 4 24 13 W 1017,8 46 0,0
07.07.2020 07:00:00 12,2 8,2 12,8 11,1 13,9 15,8 3 2 7 4 SW 1017,6 49 0,0
07.07.2020 06:00:00 10,9 8,3 9,2 10,9 14,1 15,8 3 1 10 5 SSW 1017,2 42 0,0
07.07.2020 05:00:00 11,5 9,5 8,0 11,5 14,4 15,8 3 1 18 10 SSW 1017,1 39 0,0
07.07.2020 04:00:00 12,3 9,8 10,6 11,9 14,7 15,8 7 4 16 9 NW 1017,0 25 0,0
07.07.2020 03:00:00 12,1 9,1 9,9 12,0 14,9 15,9 6 3 22 12 WNW 1016,8 41 0,0
07.07.2020 02:00:00 12,3 9,3 10,6 12,4 15,2 15,9 6 4 29 16 NW 1016,7 39 0,1
07.07.2020 01:00:00 13,0 9,2 11,6 12,6 15,6 15,9 5 3 11 6 WNW 1016,3 36 0,0
07.07.2020 00:00:00 12,7 9,2 10,2 12,8 16,0 15,9 5 3 13 7 WSW 1015,8 34 0,0
06.07.2020 23:00:00 12,6 8,7 10,2 13,0 16,5 15,9 6 3 18 10 WNW 1015,5 34 0,0
06.07.2020 22:00:00 13,3 9,3 11,1 14,0 16,9 15,9 8 4 22 12 NW 1014,9 30 0,0
06.07.2020 21:00:00 14,4 9,4 12,7 15,2 17,3 15,9 11 6 29 15 NW 1014,2 36 0,0
06.07.2020 20:00:00 14,4 11,1 13,1 16,4 17,5 15,9 10 5 32 17 NW 1013,3 28 0,0
06.07.2020 19:00:00 14,7 11,8 13,6 17,1 17,7 16,0 12 7 36 19 NW 1012,4 34 0,8
06.07.2020 18:00:00 15,4 12,0 15,0 18,5 17,7 16,0 10 6 45 24 WNW 1011,5 32 0,1
06.07.2020 17:00:00 17,1 10,3 18,4 19,1 17,5 16,0 18 10 45 24 NW 1010,8 62 0,0
06.07.2020 16:00:00 16,9 10,2 18,2 19,7 17,2 16,0 13 7 42 23 W 1010,2 65 0,0
06.07.2020 15:00:00 14,4 12,0 14,3 18,9 16,9 16,0 19 11 40 21 NW 1009,8 7 0,5
06.07.2020 14:00:00 16,3 12,0 17,4 18,4 16,5 16,0 14 8 46 25 W 1008,8 43 1,1
06.07.2020 13:00:00 14,6 10,9 14,3 18,2 16,1 16,0 14 8 35 19 W 1008,2 48 0,0
06.07.2020 12:00:00 15,7 12,1 16,5 17,8 15,6 16,0 16 9 42 23 W 1007,5 36 1,6
06.07.2020 11:00:00 16,3 11,1 17,7 17,1 15,2 16,0 16 9 41 22 WSW 1006,5 40 0,0
06.07.2020 10:00:00 14,8 12,4 15,1 15,1 15,0 16,0 11 6 44 24 WSW 1006,1 34 2,2
06.07.2020 09:00:00 12,8 12,5 12,1 13,9 15,0 16,0 9 5 35 19 W 1005,7 13 4,2
06.07.2020 08:00:00 13,0 11,4 12,0 13,4 15,1 16,0 18 10 45 25 WSW 1005,3 39 1,4
06.07.2020 07:00:00 12,3 11,0 11,3 13,0 15,3 16,0 10 5 21 11 WSW 1005,2 17 0,2
06.07.2020 06:00:00 12,0 10,4 10,5 12,9 15,7 16,1 10 6 23 13 WSW 1005,6 13 1,0
06.07.2020 05:00:00 12,2 10,9 10,2 13,4 15,9 16,1 9 5 22 12 SW 1005,0 38 0,2
06.07.2020 04:00:00 12,5 10,8 11,0 14,0 16,2 16,1 13 7 32 17 WSW 1005,9 9 1,8
06.07.2020 03:00:00 14,5 11,5 12,8 14,3 16,4 16,1 11 6 24 13 SW 1005,0 55 0,0
06.07.2020 02:00:00 14,4 12,6 12,8 14,6 16,7 16,1 8 5 15 8 SW 1005,6 42 0,0
06.07.2020 01:00:00 14,9 12,5 12,9 15,0 16,9 16,1 6 4 16 9 SW 1005,9 54 0,0
06.07.2020 00:00:00 15,5 11,8 13,5 15,1 17,2 16,1 7 4 14 8 WSW 1006,5 46 0,0
05.07.2020 23:00:00 15,9 10,9 13,9 15,5 17,6 16,1 8 5 18 10 WSW 1006,9 46 0,0
05.07.2020 22:00:00 16,2 10,7 14,4 16,0 17,9 16,1 7 4 22 12 WSW 1006,9 47 0,0
05.07.2020 21:00:00 16,5 10,2 15,1 16,6 18,2 16,1 8 5 25 14 WSW 1006,8 50 0,0
05.07.2020 20:00:00 17,4 9,8 16,4 17,7 18,5 16,1 11 6 31 17 W 1006,6 54 0,0
05.07.2020 19:00:00 18,2 10,9 17,5 18,8 18,6 16,1 13 7 37 20 W 1006,6 41 0,0
05.07.2020 18:00:00 19,0 12,6 18,5 19,4 18,6 16,2 14 8 42 23 W 1006,4 48 0,0
05.07.2020 17:00:00 18,6 14,6 17,1 19,5 18,6 16,2 13 7 37 20 W 1006,3 44 0,0
05.07.2020 16:00:00 18,3 14,7 16,7 19,7 18,5 16,2 14 7 47 25 W 1006,1 26 0,5
05.07.2020 15:00:00 20,3 15,5 19,6 21,0 18,1 16,2 18 10 47 25 W 1005,2 66 0,0
05.07.2020 14:00:00 20,0 16,5 19,1 20,5 17,7 16,2 19 10 53 29 WSW 1005,0 75 0,1
05.07.2020 13:00:00 18,8 17,7 19,2 18,8 17,5 16,2 21 11 45 25 WSW 1004,9 45 0,5
05.07.2020 12:00:00 18,3 17,0 17,3 18,1 17,4 16,2 21 11 44 24 WSW 1004,8 67 0,6
05.07.2020 11:00:00 17,6 17,0 17,0 17,8 17,3 16,2 22 12 44 24 WSW 1004,9 2,8 0,7
05.07.2020 10:00:00 18,3 16,3 16,8 17,5 17,3 16,2 22 12 47 26 WSW 1004,4 22 0,0
05.07.2020 09:00:00 18,3 16,7 16,9 17,5 17,2 16,2 15 8 39 21 WSW 1004,4 30 0,0
05.07.2020 08:00:00 18,4 16,9 17,0 17,3 17,2 16,2 16 9 32 17 SW 1004,7 51 0,0
05.07.2020 07:00:00 18,2 17,0 16,7 17,0 17,2 16,2 16 9 36 20 WSW 1005,1 30 0,0
05.07.2020 06:00:00 18,1 17,3 16,8 17,0 17,2 16,3 14 8 27 15 WSW 1005,5 8 0,1
05.07.2020 05:00:00 18,1 17,5 16,8 17,0 17,3 16,3 14 7 24 13 WSW 1005,8 7 0,0
05.07.2020 04:00:00 17,9 17,4 16,8 17,0 17,3 16,3 10 5 23 12 WSW 1006,2 31 0,0
05.07.2020 03:00:00 17,8 17,3 16,7 17,0 17,3 16,3 13 7 27 14 WSW 1006,8 30 0,2
05.07.2020 02:00:00 17,7 17,4 16,7 16,9 17,4 16,3 11 6 21 12 SW 1007,6 4,6 1,0
05.07.2020 01:00:00 17,6 17,2 16,5 16,9 17,5 16,3 11 6 29 16 SW 1008,0 3,9 0,5
05.07.2020 00:00:00 17,4 17,0 16,4 16,9 17,5 16,3 13 7 28 15 SW 1008,5 4,5 1,0
04.07.2020 23:00:00 17,4 16,8 16,3 17,0 17,6 16,3 11 6 28 15 WSW 1009,0 11 1,2
04.07.2020 22:00:00 17,2 16,7 16,2 17,2 17,7 16,3 13 7 26 14 WSW 1009,1 2,3 0,2
04.07.2020 21:00:00 17,4 16,6 16,3 17,5 17,7 16,3 15 8 35 19 WSW 1009,4 4,0 0,0
04.07.2020 20:00:00 17,9 16,3 16,6 17,7 17,8 16,3 16 9 36 20 WSW 1009,1 53 0,0
04.07.2020 19:00:00 17,7 16,3 16,5 17,7 17,8 16,3 18 10 37 20 WSW 1009,5 30 0,0
04.07.2020 18:00:00 17,4 16,5 16,5 18,0 17,8 16,3 19 11 42 23 WSW 1009,7 36 0,8
04.07.2020 17:00:00 17,5 16,7 16,7 18,1 17,7 16,3 19 10 34 19 SW 1009,7 6 0,3
04.07.2020 16:00:00 17,3 16,5 16,8 18,2 17,6 16,3 15 8 33 18 SW 1009,7 11 0,1
04.07.2020 15:00:00 16,8 16,2 16,5 18,2 17,5 16,4 13 7 28 15 SW 1009,9 6 0,5
04.07.2020 14:00:00 16,3 15,5 16,0 17,8 17,4 16,4 14 8 34 19 SW 1010,2 2,1 0,3
04.07.2020 13:00:00 16,7 14,3 15,5 17,6 17,3 16,4 12 6 35 19 SW 1010,4 16 0,0
04.07.2020 12:00:00 16,7 14,1 15,7 17,3 17,2 16,4 15 8 34 19 SW 1010,6 57 0,0
04.07.2020 11:00:00 15,8 14,3 15,2 17,0 17,1 16,4 15 8 31 17 WSW 1010,7 24 0,0
04.07.2020 10:00:00 15,8 13,7 14,8 16,6 17,1 16,4 15 8 34 18 WSW 1010,8 42 0,0
04.07.2020 09:00:00 15,0 13,7 14,2 15,8 17,2 16,4 13 7 33 18 WSW 1011,1 34 0,5
04.07.2020 08:00:00 14,7 13,5 13,6 15,5 17,4 16,4 14 7 38 20 SW 1011,1 10 0,8
04.07.2020 07:00:00 14,8 13,0 13,4 15,5 17,5 16,4 13 7 23 12 SW 1011,1 15 0,3
04.07.2020 06:00:00 14,5 13,3 13,3 15,5 17,8 16,4 12 6 27 15 WSW 1011,4 6 0,5
04.07.2020 05:00:00 16,0 12,2 14,0 15,7 18,0 16,4 16 8 34 18 WSW 1011,2 25 0,0
04.07.2020 04:00:00 16,8 11,7 15,0 15,9 18,3 16,4 18 10 37 20 WSW 1011,4 60 0,0
04.07.2020 03:00:00 16,8 12,2 14,4 16,2 18,6 16,4 12 7 22 12 SW 1011,7 45 0,0
04.07.2020 02:00:00 16,8 12,2 14,4 16,7 18,9 16,4 10 5 24 13 SW 1012,2 57 0,0
04.07.2020 01:00:00 16,6 12,4 14,2 17,2 19,2 16,4 10 5 23 13 WSW 1012,8 52 0,0
04.07.2020 00:00:00 15,8 14,2 14,4 17,6 19,6 16,4 4 2 9 5 SW 1013,2 37 0,0
03.07.2020 23:00:00 15,9 14,0 14,4 18,1 19,9 16,4 5 3 10 6 SW 1013,7 35 0,0
03.07.2020 22:00:00 16,5 14,7 14,9 18,8 20,3 16,4 7 4 18 10 WSW 1013,8 22 0,0
03.07.2020 21:00:00 16,3 15,5 15,3 19,6 20,6 16,4 9 5 18 10 WSW 1013,7 12 1,4
03.07.2020 20:00:00 16,7 15,8 15,7 20,7 20,9 16,4 9 5 27 15 SW 1013,2 11 0,6
03.07.2020 19:00:00 18,0 15,5 16,9 22,0 21,0 16,4 4 2 9 5 WSW 1013,3 36 0,0
03.07.2020 18:00:00 17,9 16,1 18,0 22,5 21,1 16,4 3 2 13 7 WNW 1013,6 37 0,1
03.07.2020 17:00:00 17,0 15,4 16,3 23,5 21,1 16,4 5 3 22 12 WNW 1013,9 26 0,9
03.07.2020 16:00:00 19,9 12,9 21,7 25,7 20,7 16,4 8 4 27 15 W 1013,7 62 0,0
03.07.2020 15:00:00 21,2 12,8 26,6 25,5 20,2 16,4 16 8 36 19 WSW 1013,8 45 0,0
03.07.2020 14:00:00 20,6 11,9 25,4 24,6 19,6 16,4 16 9 32 17 WSW 1014,0 60 0,0
03.07.2020 13:00:00 19,1 12,9 23,9 24,1 19,0 16,4 14 8 24 13 WSW 1014,1 57 0,0
03.07.2020 12:00:00 19,3 12,5 25,9 23,3 18,5 16,4 10 5 19 10 SW 1014,2 38 0,0
03.07.2020 11:00:00 17,9 11,7 21,8 21,5 18,0 16,4 9 5 20 11 WSW 1014,2 75 0,0
03.07.2020 10:00:00 17,0 10,5 21,5 20,1 17,7 16,4 6 3 16 9 SSW 1014,1 65 0,0
03.07.2020 09:00:00 15,6 11,0 17,8 17,5 17,6 16,4 6 3 10 5 SW 1014,2 56 0,0
03.07.2020 08:00:00 14,9 10,8 15,7 16,6 17,7 16,5 4 2 6 3 SW 1013,8 71 0,0
03.07.2020 07:00:00 13,9 12,0 13,7 16,0 17,8 16,5 2 1 5 3 NW 1013,7 51 0,0
03.07.2020 06:00:00 13,6 11,5 12,8 15,9 18,0 16,5 2 1 7 4 WSW 1013,4 54 0,0
03.07.2020 05:00:00 13,8 10,7 12,7 16,1 18,3 16,5 4 2 9 5 SW 1012,9 59 0,0
03.07.2020 04:00:00 13,9 10,1 12,6 16,3 18,6 16,5 5 3 12 6 NNE 1012,5 73 0,0
03.07.2020 03:00:00 13,8 10,9 12,6 16,5 18,9 16,5 3 2 11 6 WNW 1012,4 61 0,0
03.07.2020 02:00:00 14,2 11,2 12,5 16,8 19,2 16,5 6 3 11 6 NW 1011,9 64 0,0
03.07.2020 01:00:00 15,0 12,5 11,2 17,5 19,6 16,5 5 3 9 5 N 1011,5 47 0,0
03.07.2020 00:00:00 14,9 13,4 12,7 18,0 19,9 16,5 3 2 6 3 SSW 1011,4 33 0,0
02.07.2020 23:00:00 15,3 13,3 13,0 18,8 20,2 16,5 2 1 6 3 WSW 1011,1 35 0,0
02.07.2020 22:00:00 16,6 13,2 13,7 20,0 20,5 16,5 3 1 4 2 SW 1010,7 45 0,0
02.07.2020 21:00:00 18,2 13,0 17,4 21,3 20,6 16,5 3 1 10 6 W 1010,1 49 0,0
02.07.2020 20:00:00 18,6 13,3 18,7 22,1 20,7 16,5 8 4 14 7 NNW 1009,9 54 0,0
02.07.2020 19:00:00 18,9 13,6 19,7 22,5 20,7 16,5 8 5 16 9 NW 1009,5 42 0,0
02.07.2020 18:00:00 19,0 14,1 19,9 22,6 20,7 16,5 7 4 18 10 NW 1009,5 51 0,0
02.07.2020 17:00:00 19,6 13,5 20,5 23,3 20,6 16,5 5 3 16 9 W 1009,1 49 0,0
02.07.2020 16:00:00 19,4 14,4 20,5 23,8 20,4 16,5 6 3 18 10 SW 1009,2 50 0,0
02.07.2020 15:00:00 20,4 12,5 25,7 24,7 20,1 16,5 13 7 21 11 NW 1009,0 70 0,0

tt = Température de l'air
td = dewpoint
tt 5cm = Température de l'air 5cm
tt -5cm = Température de l'air -5cm
tt -20cm = Température de l'air -20cm
tt -100cm = Température de l'air -100cm
ff = Vitesse du vent
fx = gusts
dd = Direction du vent
ppp = reduced air pressure
vv = visibility
rr = Quantités de précipitations

stations d'obs. à proximité